sat.trackr.live / text

‹ back to catalog

STARLINK-4626

NORAD 53685 · 2022-105AP

PAYLOAD ACTIVE UNKNOWN

§ Identity

Operator
Country
US
Launch date
2022-08-31
Launch site
AFWTR
Launch vehicle
Mass (kg)
RCS (m²)

Purposes: comms

External: N2YO · Heavens-Above · Gunter

§ Orbital elements

Epoch: 2026-09-20T21:56:46.223232Z

Period
95.64 min
Inclination
97.2843°
Eccentricity
0.0002292
Mean motion
15.05659230 rev/d
Perigee alt
547.9 km
Apogee alt
551.1 km
Semi-major
6,927.6 km
B*
-2.6486e-5
RAAN
137.6144°
Arg perigee
72.4652°
Mean anomaly
287.6826°
Rev number
22,260

§ Raw data

STARLINK-46261 53685U 22105AP  26263.91442388 -.00000439  00000+0 -26486-4 0  99922 53685  97.2843 137.6144 0002292  72.4652 287.6826 15.05659230222606

JSON: /api/v1/satellites/53685 · /tle

For live sub-satellite position, see the globe view (requires WebGL).

§ Visibility from observer

Set your observer location to see the next 7 days of passes ≥ 10°. The values pass through the URL so the page stays shareable.

No JS? Fill the form by hand. The geolocation button needs JavaScript.